When you browse on this site, cookies collect data to enhance your experience and personalize the content and advertising you see.
Visit our Privacy Policy to learn more. By continuing to use the site, you agree to this use of cookies and data.
  • In Hungary
  • List of Countries
  • For 7 days
  • Water Temperature
  • Satellite Maps
  • Weather Map
  • News
  • Weather Widgets
  • user-avatar
    Login

    Hourly Weather Ties

    Today, 13 December, Thursday

    Time Temperature Precipitation Wind Pressure Humidity
    00:00 +23°C° 0 mm 5 mps 751 mmHg 38%
    01:00 +23°C° 0 mm 5 mps 751 mmHg 32%
    02:00 +22°C° 0 mm 5 mps 751 mmHg 27%
    03:00 +22°C° 0 mm 6 mps 751 mmHg 23%
    04:00 +22°C° 0 mm 6 mps 751 mmHg 19%
    05:00 +22°C° 0 mm 6 mps 751 mmHg 15%
    06:00 +23°C° 0 mm 7 mps 751 mmHg 14%
    07:00 +24°C° 0 mm 7 mps 752 mmHg 14%
    08:00 +26°C° 0 mm 8 mps 752 mmHg 13%
    09:00 +28°C° 0 mm 7 mps 752 mmHg 12%
    10:00 +32°C° 0 mm 7 mps 752 mmHg 11%
    11:00 +34°C° 0 mm 7 mps 752 mmHg 9%
    12:00 +35°C° 0 mm 7 mps 751 mmHg 9%
    13:00 +36°C° 0 mm 6 mps 751 mmHg 10%
    14:00 +38°C° 0 mm 6 mps 751 mmHg 10%
    15:00 +36°C° 0 mm 6 mps 750 mmHg 12%
    16:00 +35°C° 0 mm 6 mps 750 mmHg 15%
    17:00 +34°C° 0 mm 6 mps 750 mmHg 18%
    18:00 +32°C° 0 mm 6 mps 750 mmHg 22%
    19:00 +29°C° 0 mm 6 mps 751 mmHg 27%
    20:00 +27°C° 0 mm 6 mps 751 mmHg 32%
    21:00 +27°C° 0 mm 6 mps 751 mmHg 28%
    22:00 +27°C° 0 mm 6 mps 751 mmHg 24%
    23:00 +27°C° 0 mm 6 mps 751 mmHg 20%

    Tomorrow, 14 December, Friday

    Time Temperature Precipitation Wind Pressure Humidity
    00:00 +26°C° 0 mm 6 mps 751 mmHg 19%
    01:00 +26°C° 0 mm 6 mps 751 mmHg 19%
    02:00 +26°C° 0 mm 6 mps 751 mmHg 18%
    03:00 +24°C° 0 mm 6 mps 751 mmHg 18%
    04:00 +24°C° 0 mm 6 mps 751 mmHg 17%
    05:00 +24°C° 0 mm 6 mps 751 mmHg 17%
    06:00 +26°C° 0 mm 7 mps 752 mmHg 15%
    07:00 +27°C° 0 mm 7 mps 752 mmHg 14%
    08:00 +28°C° 0 mm 7 mps 753 mmHg 13%
    09:00 +32°C° 0 mm 8 mps 753 mmHg 12%
    10:00 +35°C° 0 mm 8 mps 753 mmHg 10%
    11:00 +38°C° 0 mm 8 mps 753 mmHg 9%
    12:00 +39°C° 0 mm 7 mps 752 mmHg 9%
    13:00 +40°C° 0 mm 7 mps 752 mmHg 9%
    14:00 +41°C° 0 mm 6 mps 751 mmHg 9%
    15:00 +40°C° 0 mm 5 mps 751 mmHg 10%
    16:00 +39°C° 0 mm 5 mps 751 mmHg 11%
    17:00 +37°C° 0 mm 4 mps 751 mmHg 12%
    18:00 +35°C° 0 mm 5 mps 751 mmHg 12%
    19:00 +33°C° 0 mm 6 mps 752 mmHg 13%
    20:00 +32°C° 0 mm 6 mps 752 mmHg 13%
    21:00 +30°C° 0 mm 6 mps 753 mmHg 13%
    22:00 +29°C° 0 mm 6 mps 753 mmHg 14%
    23:00 +29°C° 0 mm 6 mps 753 mmHg 14%

    Day after tomorrow, 15 December, Saturday

    Time Temperature Precipitation Wind Pressure Humidity
    00:00 +28°C° 0 mm 6 mps 753 mmHg 14%
    01:00 +27°C° 0 mm 5 mps 753 mmHg 15%
    02:00 +27°C° 0 mm 5 mps 753 mmHg 16%
    03:00 +26°C° 0 mm 5 mps 753 mmHg 16%
    04:00 +26°C° 0 mm 5 mps 753 mmHg 16%
    05:00 +26°C° 0 mm 5 mps 753 mmHg 16%
    06:00 +27°C° 0 mm 5 mps 753 mmHg 15%
    07:00 +27°C° 0 mm 6 mps 754 mmHg 15%
    08:00 +28°C° 0 mm 7 mps 754 mmHg 14%
    09:00 +30°C° 0 mm 6 mps 755 mmHg 14%
    10:00 +34°C° 0 mm 6 mps 755 mmHg 13%
    11:00 +36°C° 0 mm 6 mps 755 mmHg 13%
    12:00 +36°C° 0 mm 5 mps 754 mmHg 14%
    13:00 +36°C° 0 mm 5 mps 754 mmHg 15%
    14:00 +37°C° 0 mm 4 mps 753 mmHg 15%
    15:00 +36°C° 0 mm 3 mps 753 mmHg 17%
    16:00 +35°C° 0 mm 3 mps 753 mmHg 18%
    17:00 +34°C° 0 mm 3 mps 753 mmHg 19%
    18:00 +33°C° 0 mm 3 mps 753 mmHg 21%
    19:00 +30°C° 0 mm 3 mps 754 mmHg 24%
    20:00 +29°C° 0 mm 3 mps 754 mmHg 26%
    21:00 +28°C° 0 mm 3 mps 754 mmHg 26%
    22:00 +27°C° 0 mm 3 mps 754 mmHg 25%
    23:00 +27°C° 0 mm 4 mps 754 mmHg 25%

    16 December, Sunday

    Time Temperature Precipitation Wind Pressure Humidity
    00:00 +26°C° 0 mm 4 mps 754 mmHg 25%
    01:00 +25°C° 0 mm 4 mps 753 mmHg 25%
    02:00 +23°C° 0 mm 5 mps 753 mmHg 25%
    03:00 +23°C° 0 mm 5 mps 753 mmHg 24%
    04:00 +23°C° 0 mm 5 mps 753 mmHg 23%
    05:00 +22°C° 0 mm 5 mps 753 mmHg 22%
    06:00 +23°C° 0 mm 5 mps 753 mmHg 22%
    07:00 +24°C° 0 mm 6 mps 754 mmHg 23%
    08:00 +24°C° 0 mm 6 mps 754 mmHg 23%
    09:00 +27°C° 0 mm 6 mps 754 mmHg 20%
    10:00 +29°C° 0 mm 6 mps 754 mmHg 16%
    11:00 +33°C° 0 mm 6 mps 754 mmHg 12%
    12:00 +34°C° 0 mm 6 mps 753 mmHg 12%
    13:00 +35°C° 0 mm 6 mps 752 mmHg 12%
    14:00 +36°C° 0 mm 5 mps 752 mmHg 12%
    15:00 +34°C° 0 mm 5 mps 752 mmHg 17%
    16:00 +33°C° 0 mm 6 mps 752 mmHg 22%
    17:00 +32°C° 0 mm 6 mps 751 mmHg 27%
    18:00 +28°C° 0 mm 6 mps 752 mmHg 36%
    19:00 +26°C° 0 mm 6 mps 753 mmHg 45%
    20:00 +23°C° 0 mm 6 mps 753 mmHg 54%
    21:00 +23°C° 0 mm 6 mps 753 mmHg 55%
    22:00 +23°C° 0 mm 6 mps 753 mmHg 55%
    23:00 +22°C° 0 mm 6 mps 753 mmHg 56%

    17 December, Monday

    Time Temperature Precipitation Wind Pressure Humidity
    00:00 +22°C° 0 mm 6 mps 753 mmHg 56%
    01:00 +22°C° 0 mm 6 mps 752 mmHg 57%
    02:00 +22°C° 0 mm 6 mps 752 mmHg 57%
    03:00 +21°C° 0 mm 6 mps 752 mmHg 58%
    04:00 +21°C° 0 mm 5 mps 752 mmHg 59%
    05:00 +21°C° 0 mm 5 mps 751 mmHg 60%
    06:00 +22°C° 0 mm 6 mps 752 mmHg 54%
    07:00 +22°C° 0 mm 6 mps 752 mmHg 47%
    08:00 +23°C° 0 mm 6 mps 753 mmHg 41%
    09:00 +27°C° 0 mm 6 mps 752 mmHg 31%
    10:00 +30°C° 0 mm 6 mps 752 mmHg 22%
    11:00 +34°C° 0 mm 6 mps 752 mmHg 12%
    12:00 +35°C° 0 mm 6 mps 752 mmHg 11%
    13:00 +36°C° 0 mm 5 mps 751 mmHg 11%
    14:00 +37°C° 0 mm 4 mps 750 mmHg 10%
    15:00 +36°C° 0 mm 5 mps 750 mmHg 13%
    16:00 +35°C° 0 mm 5 mps 750 mmHg 16%
    17:00 +34°C° 0 mm 5 mps 750 mmHg 20%
    18:00 +30°C° 0 mm 5 mps 750 mmHg 26%
    19:00 +28°C° 0 mm 5 mps 751 mmHg 32%
    20:00 +26°C° 0 mm 5 mps 751 mmHg 38%
    21:00 +26°C° 0 mm 5 mps 751 mmHg 38%
    22:00 +25°C° 0 mm 5 mps 751 mmHg 37%
    23:00 +25°C° 0 mm 5 mps 752 mmHg 37%

    18 December, Tuesday

    Time Temperature Precipitation Wind Pressure Humidity
    00:00 +25°C° 0 mm 5 mps 751 mmHg 31%
    01:00 +25°C° 0 mm 5 mps 751 mmHg 26%
    02:00 +23°C° 0 mm 5 mps 751 mmHg 20%
    03:00 +23°C° 0 mm 5 mps 751 mmHg 19%
    04:00 +23°C° 0 mm 5 mps 751 mmHg 19%
    05:00 +23°C° 0 mm 5 mps 751 mmHg 18%
    06:00 +23°C° 0 mm 6 mps 751 mmHg 17%
    07:00 +24°C° 0 mm 6 mps 752 mmHg 16%
    08:00 +26°C° 0 mm 6 mps 752 mmHg 15%
    09:00 +29°C° 0 mm 6 mps 752 mmHg 13%
    10:00 +33°C° 0 mm 6 mps 752 mmHg 11%
    11:00 +35°C° 0 mm 6 mps 752 mmHg 9%
    12:00 +36°C° 0 mm 5 mps 751 mmHg 9%
    13:00 +37°C° 0 mm 5 mps 751 mmHg 8%
    14:00 +38°C° 0 mm 4 mps 750 mmHg 8%
    15:00 +37°C° 0 mm 4 mps 750 mmHg 10%
    16:00 +36°C° 0 mm 4 mps 750 mmHg 12%
    17:00 +35°C° 0 mm 4 mps 750 mmHg 14%
    18:00 +33°C° 0 mm 5 mps 750 mmHg 19%
    19:00 +29°C° 0 mm 5 mps 751 mmHg 25%
    20:00 +27°C° 0 mm 6 mps 751 mmHg 30%
    21:00 +27°C° 0 mm 6 mps 751 mmHg 30%
    22:00 +26°C° 0 mm 6 mps 751 mmHg 30%
    23:00 +26°C° 0 mm 6 mps 751 mmHg 30%
    Show more